[[{"header":{"parameterUnit":"m.s-1","parameterCategory":1,"la1":30.2991,"la2":30.254,"lo1":-89.0895,"lo2":-89.0444,"dy":0.0017,"dx":0.0017,"nx":28,"ny":28,"refTime":"2023-08-06T21:00:00:Z","depth":0,"parameterNumber":2,"parameterNumberName":"U-component_of_WINDS"},"data":[0,0,0,0,0,0,0,0,0,0,0,0,0,0,0,0,0,0,0,0,0,0,0,0,0,0,0,0,0,0,0,0,0,0,0,0,0,0,0,0,0,0,0,0,0,0,0,0,0,0,0,0,0,0,0,0,0,0,1.9103,1.9105,0,1.9244,1.9246,1.9247,1.9289,1.9289,1.9288,1.9287,1.9437,1.9441,1.9446,0,0,0,0,0,0,0,0,0,0,0,0,0,1.888,1.8884,1.9103,1.9105,1.9107,1.9244,1.9246,1.9248,1.929,1.9289,1.9288,1.9287,1.9435,1.9441,1.9446,0,0,0,0,0,0,0,0,0,0,0,0,0,1.8994,1.8885,1.9103,1.9144,1.9149,1.9243,1.9246,1.9248,1.929,1.9289,1.9288,1.9286,1.9433,1.944,1.9447,1.9512,0,0,1.9468,1.9471,0,0,0,0,0,0,0,0,1.8988,1.9003,1.9136,1.9141,1.9147,1.9248,1.9222,1.9337,1.929,1.9237,1.9287,1.9286,1.9375,1.9387,1.9416,1.9519,1.9525,1.9469,1.9473,1.9476,1.9478,0,0,0,0,0,0,0,1.898,1.8997,1.9159,1.9138,1.9145,1.9159,1.9174,1.9244,1.931,1.9241,1.9244,1.926,1.9378,1.9409,1.942,1.9528,1.9469,1.9475,1.9479,1.9482,1.9698,1.9699,0,0,0,0,0,0,1.8964,1.899,1.9155,1.9163,1.9063,1.9163,1.918,1.9217,1.931,1.9323,1.9261,1.9262,1.9397,1.9411,1.9425,1.9511,1.9476,1.9483,1.9487,1.9696,1.9698,1.97,0,0,0,0,0,0,1.8959,1.8978,1.9149,1.9078,1.91,1.9168,1.9209,1.922,1.9251,1.9325,1.9338,1.928,1.9397,1.9415,1.9491,1.9516,1.9486,1.9492,1.9694,1.9697,1.9699,1.968,0,0,0,0,0,0,1.8952,1.8976,1.8999,1.9078,1.9104,1.921,1.9211,1.9224,1.9262,1.9265,1.9346,1.9358,1.9398,1.948,1.9498,1.9525,1.9498,1.9693,1.9696,1.9698,1.9679,1.9682,1.9684,0,0,0,0,0,1.8944,1.8988,1.9,1.9019,1.9134,1.9211,1.9226,1.9269,1.9264,1.929,1.9338,1.9356,1.9511,1.9488,1.9508,1.9538,1.9691,1.9695,1.9698,1.9678,1.9681,1.9684,0,0,0,0,0,0,1.8911,1.8999,1.9013,1.9083,1.9139,1.9218,1.9251,1.9271,1.933,1.933,1.9383,1.9401,1.9474,1.9514,1.9486,1.9609,1.9602,1.961,1.958,1.9584,1.9586,1.9575,1.9503,0,0,0,0,0,1.8911,1.8964,1.904,1.9094,1.9122,1.9182,1.9217,1.9246,1.9306,1.9331,1.9384,1.9445,1.9508,1.9548,1.961,1.9686,1.9706,1.9717,1.9719,1.9721,1.9727,1.9776,1.9782,1.9711,1.9711,1.9711,0,0,1.8913,1.8968,1.8998,1.9089,1.9136,1.9193,1.9201,1.926,1.9304,1.934,1.9415,1.9458,1.9529,1.9606,1.9643,1.9642,1.9752,1.9725,1.9726,1.9732,1.978,1.9786,1.9792,1.9714,1.9713,1.9713,0,0,1.8946,1.8992,1.9044,1.9092,1.9163,1.9203,1.9216,1.9293,1.9322,1.9399,1.9429,1.9484,1.9589,1.964,1.968,1.9739,1.9759,1.9758,1.9771,1.9818,1.9823,1.9828,1.9853,1.986,1.9764,1.9764,1.9764,0,1.894,1.9025,1.9069,1.9128,1.9169,1.9205,1.9261,1.9306,1.9394,1.9423,1.942,1.9557,1.9608,1.97,1.9714,1.9744,1.9764,1.9748,1.9818,1.9824,1.983,1.9854,1.9862,1.9763,1.9763,1.9763,1.9763,0,1.9016,1.9074,1.9109,1.9193,1.9239,1.9295,1.9352,1.9393,1.942,1.9462,1.9542,1.9604,1.9681,1.9706,1.9731,1.9803,1.9801,1.9807,1.9802,1.9835,1.9859,1.9868,1.9763,1.9763,1.9763,1.9763,0,0,1.9028,1.9139,1.9151,1.9192,1.9276,1.9324,1.9385,1.946,1.9496,1.9557,1.9612,1.9704,1.9712,1.9758,1.979,1.9831,1.9879,1.9834,1.9836,1.9842,1.9967,1.9962,1.9971,1.9893,1.9895,1.9896,1.9962,0,1.9073,1.9181,1.9226,1.9315,1.9372,1.941,1.9465,1.9524,1.9566,1.9624,1.9672,1.9737,1.9741,1.9769,1.9811,1.9863,1.9905,1.9859,1.9948,1.995,1.9929,1.9983,1.9977,2.0035,1.9971,1.9972,1.9973,0,1.9139,1.9201,1.9295,1.9377,1.9403,1.945,1.9525,1.9579,1.9649,1.9678,1.9731,1.9762,1.9833,1.9823,1.9923,1.9891,1.9931,1.9963,1.9967,1.9977,1.9964,1.9997,2.0055,2.0064,1.9988,1.9986,1.9985,0,1.9142,1.9249,1.9321,1.9354,1.945,1.9484,1.9526,1.9595,1.9639,1.9705,1.9735,1.981,1.9851,1.9909,1.9962,1.995,2.0059,2.0052,2.0088,2.0087,2.0109,2.0107,2.0175,2.0132,2.0132,2.0131,2.0131,0,1.9188,1.9245,1.9324,1.9368,1.9435,1.9488,1.9554,1.9599,1.9661,1.9718,1.9756,1.9809,1.9875,1.9938,1.998,2.0059,2.0076,2.0104,2.0115,2.0101,2.0098,2.0128,2.0126,2.0134,2.0133,2.0133,2.0132,0,1.9201,1.9256,1.9337,1.9423,1.9446,1.9492,1.9567,1.9613,1.9659,1.9731,1.9751,1.9823,1.99,1.9959,2.0057,2.0087,2.0171,2.0182,2.0147,2.0152,2.0185,2.0182,2.0277,2.0294,2.0237,2.0237,2.0237,0,1.9227,1.9272,1.9363,1.9404,1.9445,1.9509,1.9555,1.9611,1.9658,1.9745,1.9782,1.9861,1.9927,2.0048,2.0112,2.0189,2.0204,2.0232,2.0215,2.0202,2.0207,2.0205,2.0211,2.0234,2.0234,2.0234,2.0234,0,1.9268,1.9295,1.9357,1.9432,1.9486,1.9547,1.961,1.9642,1.971,1.9761,1.984,1.9891,1.9994,2.0074,2.0159,2.0206,2.0234,2.0239,2.0252,2.0239,2.0218,2.0233,2.0154,2.0237,2.0236,2.0236,2.0236,2.0236,1.9291,1.9334,1.9406,1.9477,1.9531,1.959,1.9639,1.9692,1.9758,1.9845,1.9876,1.9958,2.0033,2.015,2.0199,2.0266,2.0267,2.0285,2.029,2.0294,2.0294,2.0207,2.0282,2.0282,2.0282,2.0282,2.0282,0,1.9336,1.9386,1.945,1.9537,1.9595,1.9615,1.9687,1.9734,1.9805,1.9873,1.9938,2.0031,2.011,2.0181,2.0264,2.0305,2.032,2.0326,2.0324,2.0335,2.0287,2.0268,2.0312,2.0312,2.0312,2.0312,2.0312,2.0312,1.9366,1.9443,1.9478,1.9584,1.9634,1.9714,1.9754,1.981,1.9865,1.9967,2.0032,2.0078,2.0149,2.0239,2.0314,2.0333,2.0363,2.0366,2.0388,2.0342,2.0338,2.0334,2.0318,2.0371,2.0371,2.0432,2.0432,2.0433]},{"header":{"parameterUnit":"m.s-1","parameterCategory":1,"la1":30.2991,"la2":30.254,"lo1":-89.0895,"lo2":-89.0444,"dy":0.0017,"dx":0.0017,"nx":28,"ny":28,"refTime":"2023-08-06T21:00:00:Z","depth":0,"parameterNumber":3,"parameterNumberName":"V-component_of_WINDS"},"data":[0,0,0,0,0,0,0,0,0,0,0,0,0,0,0,0,0,0,0,0,0,0,0,0,0,0,0,0,0,0,0,0,0,0,0,0,0,0,0,0,0,0,0,0,0,0,0,0,0,0,0,0,0,0,0,0,0,0,4.2165,4.2167,0,4.2423,4.2426,4.2429,4.25,4.2499,4.2497,4.2496,4.2755,4.2763,4.2771,0,0,0,0,0,0,0,0,0,0,0,0,0,4.1728,4.1735,4.2164,4.2168,4.2171,4.2423,4.2426,4.243,4.2501,4.2499,4.2497,4.2495,4.2752,4.2762,4.2772,0,0,0,0,0,0,0,0,0,0,0,0,0,4.1945,4.1738,4.2164,4.2237,4.2246,4.2422,4.2426,4.2431,4.2501,4.2499,4.2496,4.2494,4.2749,4.2761,4.2773,4.2894,0,0,4.2811,4.2817,0,0,0,0,0,0,0,0,4.1932,4.1961,4.2223,4.2232,4.2243,4.2427,4.2368,4.2586,4.2501,4.2404,4.2496,4.2493,4.2647,4.2668,4.2721,4.2906,4.2917,4.2812,4.282,4.2825,4.2829,0,0,0,0,0,0,0,4.1917,4.195,4.2267,4.2226,4.2239,4.2255,4.2284,4.2409,4.2534,4.2412,4.2418,4.2448,4.2652,4.2709,4.2728,4.2921,4.2812,4.2823,4.2831,4.2835,4.3221,4.3223,0,0,0,0,0,0,4.189,4.1937,4.2258,4.2274,4.2079,4.2265,4.2297,4.237,4.2533,4.2556,4.245,4.245,4.2689,4.2713,4.2737,4.2892,4.2825,4.2837,4.2844,4.3218,4.3221,4.3224,0,0,0,0,0,0,4.1881,4.1918,4.2248,4.2108,4.2151,4.2275,4.2357,4.2376,4.2433,4.2562,4.2584,4.2485,4.2688,4.272,4.2856,4.2902,4.2842,4.2854,4.3215,4.3219,4.3223,4.32,0,0,0,0,0,0,4.1868,4.1915,4.1962,4.2108,4.2158,4.2363,4.236,4.2383,4.2455,4.2459,4.2601,4.2622,4.2689,4.2837,4.2868,4.2918,4.2863,4.3211,4.3217,4.3222,4.3197,4.3203,4.3208,0,0,0,0,0,4.1852,4.1944,4.1964,4.2003,4.2221,4.2366,4.2394,4.2471,4.2459,4.2508,4.2591,4.2618,4.2891,4.285,4.2886,4.294,4.3209,4.3215,4.3221,4.3195,4.3202,4.3208,0,0,0,0,0,0,4.1797,4.1964,4.1989,4.213,4.2234,4.2377,4.2441,4.2475,4.2582,4.2581,4.2669,4.2701,4.2831,4.2899,4.285,4.3067,4.305,4.3064,4.3018,4.3026,4.3031,4.3012,4.2873,0,0,0,0,0,4.1802,4.1907,4.2047,4.2158,4.2209,4.2316,4.2382,4.2433,4.2542,4.2585,4.2678,4.2782,4.2892,4.2962,4.307,4.3207,4.324,4.3262,4.3267,4.3271,4.3282,4.3362,4.3374,4.3245,4.3245,4.3245,0,0,4.1812,4.1916,4.1977,4.215,4.2236,4.2342,4.2352,4.2463,4.2544,4.2602,4.2737,4.2809,4.2931,4.3068,4.3134,4.3129,4.3325,4.3279,4.3281,4.329,4.337,4.3382,4.3393,4.3249,4.3249,4.3248,0,0,4.1886,4.1974,4.2079,4.2166,4.2297,4.2368,4.2393,4.2533,4.2583,4.2721,4.2768,4.2863,4.3049,4.3136,4.3204,4.3313,4.3342,4.3345,4.3373,4.345,4.346,4.347,4.3511,4.3524,4.3355,4.3355,4.3355,0,4.1881,4.2046,4.2127,4.2239,4.2314,4.2374,4.248,4.256,4.2718,4.2768,4.2761,4.2999,4.3085,4.3245,4.3272,4.3324,4.3356,4.333,4.3452,4.3463,4.3473,4.3513,4.3528,4.3355,4.3355,4.3355,4.3355,0,4.2035,4.2148,4.2216,4.2372,4.2454,4.2562,4.2659,4.2733,4.2776,4.2848,4.2988,4.3094,4.3226,4.3267,4.3309,4.3434,4.3428,4.3435,4.3421,4.3484,4.3523,4.3539,4.3354,4.3355,4.3355,4.3355,0,0,4.208,4.2282,4.2306,4.2379,4.2529,4.2617,4.2727,4.2859,4.2922,4.3029,4.3125,4.3282,4.3292,4.3369,4.3421,4.3488,4.3571,4.3488,4.3493,4.3502,4.3718,4.3714,4.373,4.3591,4.3595,4.3597,4.3709,0,4.2175,4.2378,4.2456,4.2621,4.2727,4.2787,4.2884,4.2986,4.3056,4.3156,4.3232,4.3344,4.3346,4.3394,4.3463,4.3546,4.3616,4.3539,4.3682,4.3686,4.3652,4.375,4.3745,4.3846,4.3725,4.3727,4.3729,0,4.2312,4.2425,4.2601,4.2741,4.2789,4.2875,4.3003,4.3097,4.3215,4.3261,4.3349,4.3398,4.3516,4.3493,4.3658,4.3604,4.3666,4.3716,4.3722,4.374,4.3713,4.3773,4.3879,4.3895,4.3754,4.3752,4.375,0,4.2331,4.2526,4.2658,4.2718,4.2883,4.2943,4.3014,4.313,4.3205,4.3316,4.3366,4.3488,4.3556,4.3649,4.373,4.3705,4.3888,4.3871,4.393,4.3928,4.3967,4.3964,4.4087,4.4003,4.4003,4.4003,4.4002,0,4.2429,4.2535,4.2669,4.275,4.2872,4.296,4.3077,4.3152,4.3254,4.3351,4.3408,4.3497,4.3598,4.37,4.3763,4.3891,4.392,4.3961,4.3977,4.3958,4.3953,4.4002,4.3998,4.4007,4.4006,4.4005,4.4004,0,4.2471,4.2565,4.2713,4.2859,4.2898,4.2981,4.3106,4.3187,4.3261,4.3382,4.3416,4.3531,4.3654,4.3744,4.3902,4.3945,4.4083,4.4097,4.4044,4.4053,4.4108,4.4103,4.4269,4.4296,4.4191,4.4192,4.4192,0,4.2528,4.2612,4.2769,4.2839,4.2911,4.3023,4.3101,4.3191,4.3269,4.3411,4.3475,4.3603,4.3711,4.3905,4.4002,4.4123,4.4143,4.4193,4.4162,4.414,4.4147,4.4142,4.4152,4.4198,4.4198,4.4199,4.4199,0,4.2621,4.2665,4.2776,4.2905,4.2997,4.3102,4.3207,4.3261,4.337,4.3455,4.3584,4.3667,4.3831,4.3958,4.409,4.4162,4.42,4.4209,4.4229,4.4211,4.4178,4.42,4.4059,4.4205,4.4204,4.4204,4.4203,4.4203,4.2675,4.2753,4.2877,4.3,4.309,4.3188,4.3273,4.3358,4.3468,4.361,4.3656,4.3789,4.3906,4.4088,4.4162,4.4268,4.4266,4.4295,4.4303,4.431,4.431,4.416,4.4291,4.4291,4.4291,4.4291,4.4291,0,4.2773,4.2857,4.2969,4.3117,4.3214,4.3243,4.3361,4.344,4.3558,4.3665,4.3771,4.392,4.4044,4.4151,4.428,4.4344,4.4364,4.4375,4.4372,4.4389,4.4303,4.4274,4.4356,4.4356,4.4356,4.4356,4.4356,4.4356,4.2836,4.2972,4.303,4.3211,4.3293,4.3427,4.3493,4.3584,4.3671,4.3835,4.394,4.401,4.4118,4.4255,4.437,4.4399,4.4445,4.4451,4.4484,4.4402,4.4394,4.4387,4.436,4.446,4.446,4.4562,4.4563,4.4564]}]]